Location: Unspecified
(0.0000°N, 0.0000°E)
Time: 14:02:53
(UTC+00:00)

deb Explorer IX - All Passes

Search period start: 02 February 2023 00:00
Search period end: 12 February 2023 00:00
Orbit: 534 x 1049 km, 38.8° (Epoch: 01 February)

Date Brightness Start Highest point End Pass type
(mag) Time Alt. Az. Time Alt. Az. Time Alt. Az.
02 Feb - 00:15:49 10° SW 00:21:44 70° SE 00:26:45 10° NE night (unlit)
02 Feb - 02:04:52 10° WNW 02:07:44 15° NW 02:10:24 10° N night (unlit)
02 Feb - 11:06:15 10° N 11:10:00 22° NE 11:14:11 10° E daylight
02 Feb - 12:51:01 10° WNW 12:56:06 50° SW 13:02:00 10° SE daylight
02 Feb - 22:00:24 10° SSE 22:02:00 11° SSE 22:03:35 10° SE visible
02 Feb - 23:42:59 10° SW 23:49:03 61° SE 23:54:14 10° ENE night (unlit)
03 Feb - 01:31:24 10° W 01:35:06 18° NW 01:38:29 10° N night (unlit)
03 Feb - 10:34:10 10° N 10:37:22 18° NE 10:40:52 10° E daylight
03 Feb - 12:18:26 10° WNW 12:23:23 58° SW 12:29:11 10° SE daylight
03 Feb - 23:10:08 10° SW 23:16:18 53° SE 23:21:37 10° ENE night (unlit)
04 Feb - 00:58:03 10° W 01:02:26 22° NW 01:06:23 10° N night (unlit)
04 Feb - 10:02:14 10° N 10:04:44 14° NE 10:07:24 10° ENE daylight
04 Feb - 11:45:52 10° WNW 11:50:41 67° SW 11:56:20 10° SE daylight
04 Feb - 13:36:11 10° SW 13:37:34 11° SSW 13:39:00 10° SSW daylight
04 Feb - 22:37:15 10° SSW 22:43:30 47° SE 22:48:56 10° ENE night (unlit)
05 Feb - 00:24:46 10° W 00:29:45 27° NW 00:34:09 10° NNE night (unlit)
05 Feb - 09:30:38 10° NNE 09:32:05 11° NE 09:33:33 10° ENE daylight
05 Feb - 11:13:19 10° NW 11:17:59 78° SW 11:23:27 10° SE daylight
05 Feb - 13:02:43 10° SW 13:04:43 12° SSW 13:06:49 10° SSW daylight
05 Feb - 22:04:24 10° SSW 22:10:39 42° SE 22:16:10 10° ENE visible
05 Feb - 23:51:31 10° WSW 23:56:59 32° NW 00:01:49 10° NNE night (unlit)
06 Feb - 10:40:47 10° NW 10:45:17 88° NE 10:50:32 10° SE daylight
06 Feb - 12:29:29 10° WSW 12:31:53 13° SW 12:34:26 10° S daylight
06 Feb - 21:31:33 10° SSW 21:37:44 37° SE 21:43:19 10° ENE visible
06 Feb - 23:18:17 10° WSW 23:24:12 39° NW 23:29:24 10° NNE night (unlit)
07 Feb - 10:08:14 10° NW 10:12:35 74° NE 10:17:36 10° SE daylight
07 Feb - 11:56:23 10° WSW 11:59:03 14° SW 12:01:55 10° S daylight
07 Feb - 20:58:42 10° SSW 21:04:48 33° SE 21:10:24 10° ENE visible
07 Feb - 22:45:04 10° WSW 22:51:20 46° NW 22:56:52 10° NNE night (unlit)
08 Feb - 09:35:43 10° NW 09:39:53 60° NE 09:44:38 10° ESE daylight
08 Feb - 11:23:20 10° WSW 11:26:14 16° SW 11:29:21 10° S daylight
08 Feb - 20:25:52 10° SSW 20:31:49 30° SE 20:37:22 10° E visible
08 Feb - 22:11:52 10° WSW 22:18:27 54° NW 22:24:17 10° NE visible
09 Feb - 09:03:11 10° NNW 09:07:11 48° NE 09:11:38 10° ESE daylight
09 Feb - 10:50:19 10° W 10:53:23 18° SW 10:56:43 10° S daylight
09 Feb - 19:53:03 10° SSW 19:58:47 27° SE 20:04:13 10° E visible
09 Feb - 21:38:41 10° WSW 21:45:29 63° NW 21:51:36 10° NE visible
09 Feb - 23:31:23 10° NW 23:31:55 10° NW 23:32:27 10° NW night (unlit)
10 Feb - 08:30:39 10° NNW 08:34:28 38° NE 08:38:36 10° ESE daylight
10 Feb - 10:17:20 10° W 10:20:33 20° SW 10:24:03 10° S daylight
10 Feb - 19:20:17 10° SSW 19:25:43 24° SE 19:30:59 10° E visible
10 Feb - 21:05:32 10° SW 21:12:29 72° NW 21:18:49 10° NE visible
10 Feb - 22:56:15 10° WNW 22:58:57 13° NW 23:01:31 10° NNW night (unlit)
11 Feb - 07:58:08 10° NNW 08:01:44 31° NE 08:05:32 10° ESE daylight
11 Feb - 09:44:22 10° W 09:47:43 22° SW 09:51:21 10° SSE daylight
11 Feb - 18:47:33 10° S 18:52:38 21° SE 18:57:38 10° E visible
11 Feb - 20:32:23 10° SW 20:39:26 83° NW 20:45:59 10° NE visible
11 Feb - 22:22:12 10° WNW 22:25:57 15° NW 22:29:30 10° N visible
